Flag for Spain Weather past 2 weeks in Sevilla, Spain

Now
68 °F

Passing clouds.


Feels Like: 68 °F
Forecast: 62 / 84 °F
Wind: 7 mph from Southwest

Location: Sevilla / San Pablo

Current Time: Aug 2, 2014 at 1:56:10 AM

Latest Report: Aug 2, 2014 at 1:00 AM


Visibility: N/A

Pressure: 29.95 "Hg

Humidity: 78%

Dew point: 61 °F

Location of SevillaLocation

Historic Weather in Sevilla — Graph

°F

Sevilla temperature yesterday

Maximum temperature yesterday: 81 °F (at 4:30 PM)
Minimum temperature yesterday: 63 °F (at 7:30 AM)
Average temperature yesterday: 71 °F

Past Weeks' High & Low Weather Summary

 TemperatureHumidityPressure
High99 °F (Jul 22, 6:00 PM)94% (Jul 24, 7:00 AM)30.09 "Hg (Jul 24, 7:00 AM)
Low63 °F (Jul 21, 6:00 AM)12% (Jul 21, 8:30 PM)29.77 "Hg (Jul 24, 6:30 PM)
Average77 °F58%29.95 "Hg
* Reported Midnight between Jul 17 and Jul 18 — Aug 2 12:30 AM, Sevilla, Weather by CustomWeather, © 2014

Note: Actual official high and low records may vary slightly from our data, if they occured in-between our weather recording intervals... More about our weather records

Advertising

Sevilla weather history for previous 24 hours

 ConditionsComfort  
Time TempWeatherWind HumidityBarometerVisibility
12:30 AM
Aug 2
68 °FPassing clouds.9 mph78%29.95 "HgN/A
12:00 AM68 °FClear.9 mph78%29.95 "Hg10 mi
11:30 PM
Aug 1
70 °FClear.13 mph73%29.95 "Hg10 mi
11:00 PM70 °FPassing clouds.8 mph69%29.92 "HgN/A
10:30 PM72 °FSunny.10 mph61%29.92 "Hg10 mi
10:00 PM72 °FSunny.15 mph61%29.92 "Hg10 mi
9:30 PM72 °FPassing clouds.18 mph65%29.92 "HgN/A
9:00 PM73 °FSunny.20 mph61%29.92 "Hg10 mi
8:30 PM75 °FPassing clouds.18 mph54%29.89 "HgN/A
8:00 PM77 °FPassing clouds.17 mph54%29.89 "HgN/A
7:30 PM79 °FPassing clouds.14 mph51%29.89 "HgN/A
7:00 PM81 °FPassing clouds.12 mph48%29.89 "HgN/A
6:30 PM81 °FPassing clouds.10 mph45%29.89 "HgN/A
6:00 PM81 °FPassing clouds.12 mph45%29.92 "HgN/A
5:30 PM81 °FPassing clouds.8 mph45%29.92 "HgN/A
5:00 PM81 °FScattered clouds.9 mph48%29.92 "HgN/A
4:30 PM81 °FScattered clouds.7 mph45%29.95 "HgN/A
4:00 PM79 °FPartly sunny.9 mph48%29.95 "HgN/A
3:30 PM79 °FPartly sunny.8 mph45%29.95 "HgN/A
3:00 PM77 °FPartly sunny.9 mph51%29.95 "HgN/A
2:30 PM77 °FPartly sunny.9 mph51%29.98 "HgN/A
2:00 PM75 °FPartly sunny.7 mph50%29.98 "HgN/A
1:30 PM75 °FPartly sunny.7 mph50%29.98 "HgN/A
1:00 PM73 °FBroken clouds.8 mph57%30.01 "HgN/A
12:30 PM72 °FPartly sunny.6 mph65%30.01 "HgN/A
12:00 PM72 °FPartly sunny.8 mph65%30.01 "HgN/A
11:30 AM72 °FPartly sunny.9 mph65%30.01 "HgN/A
11:00 AM70 °FOvercast.6 mph69%30.01 "HgN/A
10:30 AM68 °FOvercast.6 mph73%30.01 "HgN/A
10:00 AM66 °FOvercast.5 mph83%30.01 "HgN/A
9:30 AM66 °FPartly sunny.3 mph83%29.98 "HgN/A
9:00 AM64 °FPartly sunny.5 mph88%29.98 "HgN/A
8:30 AM64 °FPartly sunny.2 mph88%29.98 "HgN/A
8:00 AM63 °FPassing clouds.7 mph94%29.98 "HgN/A
7:30 AM63 °FPassing clouds.7 mph94%29.98 "HgN/A
7:00 AM64 °FPassing clouds.7 mph88%29.98 "HgN/A
6:30 AM66 °FPassing clouds.9 mph83%29.98 "HgN/A
6:00 AM66 °FPassing clouds.5 mph83%29.98 "HgN/A
5:30 AM66 °FPassing clouds.5 mph83%29.95 "HgN/A
5:00 AM66 °FPassing clouds.5 mph83%29.98 "HgN/A
4:30 AM66 °FClear.1 mph83%29.98 "Hg10 mi
4:00 AM66 °FClear.2 mph78%29.98 "Hg10 mi
2:30 AM66 °FClear.8 mph78%29.98 "Hg10 mi
1:30 AM66 °FClear.9 mph78%30.01 "Hg10 mi
1:00 AM68 °FPassing clouds.7 mph73%30.01 "HgN/A
Weather by CustomWeather, © 2014

See weather overviewHow to use our weather pages